Ft Lauderdale, FL

10:52 AM EDT on April 22, 2018 (GMT -0400)
Fort Lauderdale-Hollywood International

Weather History for KFLL - September, 2013

Change the Weather History Date:

Tuesday, September 3, 2013

  Actual Average Record
Temperature  
Mean Temperature 82 °F 84 °F  
Max Temperature 89 °F 90 °F 96 °F (1998)
Min Temperature 74 °F 78 °F 68 °F (1924)
Degree Days  
Heating Degree Days 0 0  
Month to date heating degree days 0 0  
Since 1 July heating degree days 0 0  
Cooling Degree Days 17 19  
Month to date cooling degree days 50 57  
Year to date cooling degree days 3097 3223  
Growing Degree Days 30 (Base 50)    
Moisture  
Dew Point 74 °F    
Average Humidity 84    
Maximum Humidity 100    
Minimum Humidity 68    
Precipitation  
Precipitation 0.00 in 0.30 in 2.33 in (1985)
Month to date precipitation 0.15 0.90  
Year to date precipitation 57.19 41.97  
Snow  
Snow 0.00 in - - ()
Month to date snowfall 0.0  
Since 1 July snowfall 0.0  
Since 1 September snowfall 0.0  
Snow Depth 0.00 in    
Sea Level Pressure  
Sea Level Pressure 29.98 in    
Wind  
Wind Speed 6 mph (ENE)    
Max Wind Speed 13 mph    
Max Gust Speed 16 mph    
Visibility 10 miles    
Events Thunderstorm    
T = Trace of Precipitation, MM = Missing Value Source: NWS Daily Summary

Daily Weather History Graph

Daily Weather History Graph

Search for Another Location

Airport or City:

Astronomy

Sep. 03, 2013 Rise Set
Actual Time 7:01 AM EDT 7:37 PM EDT
Civil Twilight 6:38 AM EDT 8:01 PM EDT
Nautical Twilight 6:10 AM EDT 8:28 PM EDT
Astronomical Twilight 5:42 AM EDT 8:56 PM EDT
Moon 5:19 AM EDT (9/3) 6:21 PM EDT (9/3)
Length of Visible Light 13h 22m
Length of Day
12h 36m
Waning Crescent, 3% of the Moon is Illuminated
Sep 3
Waning Crescent
Sep 5
New
Sep 12
First Quarter
Sep 19
Full
Sep 26
Last Quarter

Hourly Weather History & Observations

Time (EDT) Temp. Heat Index Dew Point Humidity Pressure Visibility Wind Dir Wind Speed Gust Speed Precip Events Conditions
12:53 AM 75.0 °F - 73.0 °F 94% 29.99 in 10.0 mi Calm Calm - N/A   Clear
1:53 AM 75.0 °F - 73.0 °F 94% 29.98 in 10.0 mi Calm Calm - N/A   Clear
2:53 AM 73.9 °F - 73.0 °F 97% 29.97 in 10.0 mi North 3.5 mph - N/A   Partly Cloudy
3:53 AM 75.0 °F - 73.0 °F 94% 29.96 in 10.0 mi Calm Calm - N/A   Partly Cloudy
4:53 AM 75.0 °F - 73.0 °F 94% 29.94 in 10.0 mi Calm Calm - N/A   Partly Cloudy
5:53 AM 73.9 °F - 72.0 °F 93% 29.94 in 10.0 mi Calm Calm - N/A   Partly Cloudy
6:53 AM 75.9 °F - 73.0 °F 91% 29.96 in 10.0 mi Calm Calm - N/A   Partly Cloudy
7:53 AM 77.0 °F - 73.9 °F 90% 29.97 in 10.0 mi North 4.6 mph - N/A   Partly Cloudy
8:53 AM 82.0 °F 89.4 °F 75.9 °F 82% 29.99 in 10.0 mi North 5.8 mph - N/A   Partly Cloudy
9:53 AM 84.9 °F 95.3 °F 77.0 °F 77% 30.00 in 10.0 mi NW 3.5 mph - N/A   Partly Cloudy
10:53 AM 86.0 °F 95.1 °F 75.0 °F 70% 30.02 in 10.0 mi East 6.9 mph - N/A   Scattered Clouds
11:53 AM 88.0 °F 98.5 °F 75.9 °F 67% 30.02 in 10.0 mi ENE 9.2 mph - N/A   Scattered Clouds
12:35 PM 86.0 °F 95.1 °F 75.2 °F 70% 30.02 in 10.0 mi NE 8.1 mph - N/A Thunderstorm Thunderstorm
12:53 PM 82.0 °F 87.9 °F 73.9 °F 76% 30.02 in 10.0 mi NNW 8.1 mph - N/A Thunderstorm Thunderstorm
1:22 PM 84.2 °F 88.4 °F 69.8 °F 62% 30.00 in 10.0 mi NNE 5.8 mph - N/A   Mostly Cloudy
1:53 PM 84.0 °F 90.2 °F 73.0 °F 69% 30.00 in 10.0 mi North 4.6 mph - N/A   Mostly Cloudy
2:53 PM 82.9 °F 90.8 °F 75.9 °F 79% 29.99 in 10.0 mi East 8.1 mph - N/A   Scattered Clouds
3:53 PM 84.0 °F 91.2 °F 73.9 °F 72% 29.96 in 10.0 mi East 5.8 mph - N/A   Scattered Clouds
4:53 PM 84.0 °F 92.6 °F 75.9 °F 76% 29.96 in 10.0 mi East 12.7 mph - N/A   Scattered Clouds
5:53 PM 84.0 °F 92.6 °F 75.9 °F 76% 29.96 in 10.0 mi East 10.4 mph - N/A   Scattered Clouds
6:53 PM 82.9 °F 90.2 °F 75.0 °F 77% 29.96 in 10.0 mi ENE 8.1 mph - N/A   Partly Cloudy
7:53 PM 82.9 °F 90.2 °F 75.0 °F 77% 29.98 in 10.0 mi East 8.1 mph - N/A   Partly Cloudy
8:53 PM 82.9 °F 90.8 °F 75.9 °F 79% 29.99 in 10.0 mi ESE 9.2 mph - N/A   Scattered Clouds
9:53 PM 82.9 °F 90.8 °F 75.9 °F 79% 30.01 in 10.0 mi SE 8.1 mph - N/A   Scattered Clouds
10:53 PM 82.9 °F 90.8 °F 75.9 °F 79% 30.01 in 10.0 mi SE 8.1 mph - N/A   Partly Cloudy
11:53 PM 82.9 °F 90.8 °F 75.9 °F 79% 30.01 in 10.0 mi SE 8.1 mph - N/A   Partly Cloudy